Home > Weather > Grenchen > Past weeks

Flag for Switzerland Past Weather in Grenchen, Solothurn, Switzerland — Yesterday and Last 2 Weeks

Now
69 °F

Mild.


Feels Like: 69 °F
Forecast: 58 / 74 °F
Wind: 3 mph from Northeast

Location: Grenchen

Current Time: Aug 28, 2016 at 4:29:48 AM

Latest Report: Aug 28, 2016 at 3:00 AM


Visibility: N/A

Pressure: 30.06 "Hg

Humidity: 88%

Dew Point: 65 °F

Location of GrenchenLocation

Past Weather in Grenchen — Graph

°F

Grenchen Temperature Yesterday

Maximum temperature yesterday: 89 °F (at 4:00 PM)
Minimum temperature yesterday: 60 °F (at 6:00 AM)
Average temperature yesterday: 74 °F

High & Low Weather Summary for the Past Weeks

 TemperatureHumidityPressure
High89 °F (Aug 26, 5:00 PM)100% (Aug 25, 6:00 AM)30.41 "Hg (Aug 25, 6:00 AM)
Low47 °F (Aug 22, 7:00 AM)40% (Aug 27, 6:00 PM)29.81 "Hg (Aug 17, 5:00 PM)
Average68 °F77%30.09 "Hg
* Reported Aug 13 3:00 AM — Aug 28 3:00 AM, Grenchen, Weather by CustomWeather, © 2016

Note: Actual official high and low records may vary slightly from our data, if they occured in-between our weather recording intervals... More about our weather records

Advertising

Grenchen Weather History for the Previous 24 Hours

Scroll right to see more
 ConditionsComfort  
Time TempWeatherWind HumidityBarometerVisibility
3:00 AM
Sun, Aug 28
69 °FMild.3 mph88%30.06 "HgN/A
2:00 AM70 °FMild.2 mph84%30.07 "HgN/A
1:00 AM71 °FMild.2 mph83%30.07 "HgN/A
12:00 AM70 °FMild.2 mph83%30.06 "HgN/A
11:00 PM
Sat, Aug 27
71 °FMild.2 mph83%30.05 "HgN/A
10:00 PM74 °FMild.1 mph78%30.03 "HgN/A
9:00 PM79 °FWarm.3 mph64%30.00 "HgN/A
8:00 PM83 °FWarm.3 mph56%29.98 "HgN/A
7:00 PM88 °FHot.3 mph41%29.96 "HgN/A
6:00 PM89 °FHot.3 mph40%29.96 "HgN/A
5:00 PM89 °FHot.3 mph42%29.97 "HgN/A
4:00 PM89 °FHot.2 mph41%29.98 "HgN/A
3:00 PM88 °FWarm.2 mph41%30.00 "HgN/A
2:00 PM85 °FWarm.2 mph44%30.03 "HgN/A
1:00 PM83 °FWarm.3 mph50%30.05 "HgN/A
12:00 PM80 °FWarm.3 mph55%30.07 "HgN/A
11:00 AM77 °FMild.2 mph65%30.09 "HgN/A
10:00 AM72 °FMild.3 mph76%30.11 "HgN/A
9:00 AM68 °FMild.No wind84%30.11 "HgN/A
8:00 AM64 °FMild.No wind95%30.11 "HgN/A
7:00 AM60 °FCool.1 mph99%30.11 "HgN/A
6:00 AM60 °FCool.1 mph100%30.10 "HgN/A
5:00 AM62 °FCool.1 mph96%30.10 "HgN/A
4:00 AM62 °FCool.No wind97%30.10 "HgN/A
Weather by CustomWeather, © 2016

See weather overviewHow to use our weather pages